Tracking 18987 objects as of 24-Feb-2018
HD Live streaming from Space Station
objects crossing your sky now

OPS 3367 A

Track OPS 3367 A now!
10-day predictions
OPS 3367 A is classified as:


NORAD ID: 734
Int'l Code: 1964-002B
Perigee: 792.8 km
Apogee: 812.9 km
Inclination: 99.0 °
Period: 100.8 minutes
Semi major axis: 7173 km
RCS: 0.3359 m2 (medium)
Launch date: January 19, 1964
Source: United States (US)
Launch site: AIR FORCE WESTERN TEST RANGE (AFWTR)
aabbcc
Your satellite tracking list
Your tracking list is empty




NASA's NSSDC Master Catalog

Two Line Element Set (TLE):
1 00734U 64002B   18055.39595354 -.00000010  00000-0  14943-4 0  9995
2 00734  99.0213 187.6090 0014012 332.6375  27.4066 14.28819136815392
Source of the keplerian elements: AFSPC